{"data":{"norad_id":67411,"epoch":"2026-09-19T22:13:57.724320Z","epoch_age_seconds":124934,"freshness":"FRESH","line1":"1 67411U 26005H   26262.92636255  .00008429  00000+0  31535-3 0  9990","line2":"2 67411  42.9977 220.9325 0000234 230.4067 129.6764 15.27590323 38400","mean_motion":15.27590323,"eccentricity":2.34e-5,"inclination_deg":42.9977,"raan_deg":220.9325,"arg_perigee_deg":230.4067,"mean_anomaly_deg":129.6764,"bstar":0.00031535,"rev_number":3840,"period_min":94.266111687066,"perigee_km":482.85763440671,"apogee_km":483.17873646938,"semimajor_km":6861.155185438,"source":"CELESTRAK","updated_at":"2026-09-20T09:00:43.520131Z"}}